Regional Weather Roundup
Issued by NWS

Home | Current Version | Previous Version | Graphics & Text | Print | Product List | Glossary On
Versions: 1 2 3 4 5 6 7 8 9 10 11 12 13 14 15 16 17 18 19 20 21 22 23 24 25 26 27 28 29 30 31 32 33 34 35 36 37 38 39 40 41 42 43 44 45 46 47 48 49 50
000
ASUS43 KFSD 270110
RWRSD

WEATHER ROUNDUP FOR SOUTH DAKOTA
NATIONAL WEATHER SERVICE SIOUX FALLS SD
800 PM CDT TUE AUG 26 2014

NOTE: "FAIR" INDICATES FEW OR NO CLOUDS BELOW 12,000 FEET WITH NO
SIGNIFICANT WEATHER AND/OR OBSTRUCTIONS TO VISIBILITY.


SDZ001>005-009-010-012>017-270200-
NORTHWEST AND NORTH CENTRAL SOUTH DAKOTA

CITY           SKY/WX    TMP DP  RH WIND       PRES   REMARKS
BUFFALO          N/A     67  56  67 E7        30.07S
FAITH            N/A     66  55  67 E10       30.11S
MOBRIDGE       CLOUDY    63  56  78 NE7       30.11F
$$

SDZ012>016-024>037-041>051-057-063-072>074-270200-
SOUTHWEST AND SOUTH CENTRAL SOUTH DAKOTA

CITY           SKY/WX    TMP DP  RH WIND       PRES   REMARKS
RAPID CTY ARPT MOCLDY    73  58  59 NE6       30.11R
PIERRE         PTCLDY    69  57  65 E13       30.08S
CUSTER         PTCLDY    63  56  78 NE6       30.22R
ELLSWORTH AFB  PTCLDY    74  58  58 E5        30.11R
PHILIP         PTCLDY    74  56  53 E13       30.06R
PINE RIDGE     TSTM      68  60  75 W16G36    30.10R VSB 3/4
WINNER         FAIR      74  58  57 E13       30.08S
$$

SDZ004>011-016>023-039-040-270200-
NORTHEAST SOUTH DAKOTA

CITY           SKY/WX    TMP DP  RH WIND       PRES   REMARKS
ABERDEEN       CLOUDY    60  55  83 CALM      30.15S
WATERTOWN      MOCLDY    62  54  74 E12       30.14F
SISSETON         N/A     61  57  87 S3        30.14F
$$

SDZ017-020-022-023-036>040-048>070-270200-
SOUTHEAST SOUTH DAKOTA

CITY           SKY/WX    TMP DP  RH WIND       PRES   REMARKS
SIOUX FALLS    MOCLDY    67  57  70 E9        30.13S
HURON          PTCLDY    67  55  65 NE6       30.12R
CHAMBERLAIN    PTCLDY    69  59  71 E3        30.10S
MITCHELL       PTCLDY    69  61  75 SE7       30.11S
YANKTON        PTCLDY    66  59  77 E5        30.11S
$$

ABBREVIATIONS USED IN REMARKS
   TC - TEMPERATURE IN CELSIUS
  WCI - WIND CHILL INDEX
   HX - HEAT INDEX
  VSB - VISIBILITY



USA.gov is the U.S. government's official web portal to all federal, state and local government web resources and services.